Wind_Speed
10 8 8 7 7 7 7 7 7 7 7 7 7 7 7 8 8 9 9 9 9 8 8 9 9 9 8 8 9 9 10 10 10 11 11 11 11 11 11 11 11 11 11
9 8 8 7 7 7 7 7 7 7 7 7 7 8 8 9 10 10 9 10 9 9 9 9 9 9 9 9 9 9 9 10 11 11 11 11 11 11 11 12 12 12 12
8 8 7 7 7 6 6 6 6 6 6 7 8 8 9 10 10 10 10 10 10 10 10 9 9 10 10 9 9 9 10 10 10 11 11 11 12 12 12 12 12 13 12
8 7 7 7 7 7 6 6 6 7 7 7 8 8 9 9 10 10 10 11 11 10 10 10 10 10 10 10 10 10 10 11 11 11 12 11 12 12 13 13 13 13 12
8 7 8 8 7 7 7 7 8 7 7 8 8 9 9 9 9 10 10 11 11 11 11 11 11 11 11 11 11 11 11 11 11 11 11 11 12 12 13 13 14 13 13
8 7 7 7 7 7 8 8 9 8 8 9 9 10 10 10 10 10 11 11 11 12 12 13 13 12 11 11 11 11 11 11 10 10 11 11 12 12 13 13 14 14 14
8 8 8 7 8 8 9 9 9 9 9 9 10 10 11 10 11 11 11 12 12 12 13 13 13 12 12 11 11 11 11 11 11 11 11 12 12 12 12 13 14 14 14
9 9 9 8 8 9 9 10 9 9 9 10 10 10 10 11 11 11 11 11 11 11 11 12 12 12 12 12 11 11 11 11 11 11 11 11 11 11 11 12 13 13 14
9 10 9 9 9 9 10 10 10 10 10 11 11 11 11 11 11 11 10 10 10 10 10 11 11 12 12 12 11 11 11 11 11 11 11 11 12 12 12 12 13 13 14
9 9 10 10 10 10 10 10 11 11 11 11 12 12 12 12 10 10 9 9 10 10 10 11 11 12 12 12 12 11 12 12 11 10 11 12 12 13 13 13 14 14 14
9 9 10 10 10 10 10 11 11 11 12 12 12 12 12 12 11 10 9 10 10 10 11 11 11 10 11 12 12 12 13 12 11 10 11 11 12 12 12 13 13 14 14
10 11 11 11 11 11 11 11 11 11 12 12 12 12 12 12 11 10 10 10 10 11 11 11 11 11 11 12 12 13 13 12 11 11 11 11 11 11 11 11 12 13 14
11 11 12 12 12 11 11 12 12 12 12 12 12 12 12 12 11 11 11 11 11 11 12 11 11 11 11 11 12 13 13 13 12 12 12 11 10 10 10 11 11 12 13
11 11 11 12 12 12 11 12 12 12 12 12 12 12 12 12 11 11 11 11 11 11 12 12 11 11 12 12 12 13 13 14 13 13 12 12 12 11 12 12 12 13 13
12 11 12 12 12 12 12 13 13 13 13 13 13 13 12 12 11 12 12 11 11 12 12 13 12 12 12 12 13 13 13 13 13 14 14 14 14 14 14 14 13 14 14
13 14 13 13 13 13 13 14 14 13 13 13 13 13 13 13 13 13 12 13 13 13 13 13 13 14 13 13 13 13 13 13 14 15 15 15 15 16 15 15 15 15 15
15 15 15 15 15 15 15 15 15 15 15 15 15 14 14 14 15 14 14 14 14 14 14 14 14 14 14 14 14 14 14 14 14 15 16 16 16 16 16 16 16 17 17
16 16 17 17 17 17 17 17 17 17 17 17 17 16 16 16 16 16 16 16 16 16 15 15 15 15 15 15 16 16 16 16 16 16 17 17 17 17 18 18 18 19 19
19 19 19 19 19 19 19 19 19 19 18 18 18 18 17 17 17 17 17 17 18 18 17 17 17 17 17 17 17 18 18 18 18 18 18 18 19 19 19 19 20 20 20
21 21 21 21 21 21 21 21 21 21 20 20 20 19 19 19 19 19 19 19 19 19 19 18 18 18 18 18 18 18 19 19 20 20 20 20 20 20 21 21 21 21 22
22 22 22 22 22 22 23 23 22 22 23 22 22 21 21 21 20 21 21 20 20 20 20 20 20 20 20 20 20 20 20 21 21 20 20 20 21 21 22 22 22 22 22
24 24 24 24 24 24 24 25 25 24 24 25 25 24 24 23 22 22 22 22 22 22 22 21 21 22 22 22 22 21 22 22 22 22 22 22 22 22 23 23 23 23 23
26 27 26 26 26 26 26 27 27 27 26 26 26 26 27 26 25 24 24 24 24 24 24 24 23 24 23 23 23 23 23 23 23 23 23 23 24 24 24 24 24 24 25
29 29 29 29 28 28 28 28 28 28 29 29 29 28 28 28 27 26 26 26 26 26 26 25 25 25 25 25 25 25 25 25 25 25 25 25 25 25 25 25 25 25 25
30 30 30 31 30 30 30 30 30 30 30 30 30 30 29 29 29 28 27 27 27 27 27 27 27 27 27 27 27 27 26 26 26 26 26 26 26 26 26 26 26 26 26
30 30 31 31 31 31 31 32 32 32 31 31 31 30 30 30 30 29 29 28 28 29 29 29 29 29 29 29 29 28 28 28 28 28 28 28 27 27 27 27 26 26 26
Wind_Direction
283 286 285 287 290 291 294 293 286 288 284 281 282 281 280 282 285 283 281 278 278 278 280 280 280 280 283 283 281 275 270 264 263 264 265 263 259 258 257 257 256 253 253
286 287 284 285 280 281 285 287 286 281 284 280 282 281 282 284 285 282 279 279 279 279 281 280 278 280 281 282 280 279 275 266 266 266 264 263 261 260 259 256 255 254 256
283 283 281 281 278 281 286 286 287 283 286 285 283 282 279 280 279 279 279 278 277 279 279 279 280 279 280 280 279 278 277 272 269 264 262 263 260 258 257 256 254 255 255
281 279 278 278 279 282 285 285 287 288 290 289 284 283 280 281 282 281 279 276 275 275 276 278 279 278 278 278 277 277 276 275 270 264 261 262 260 256 255 254 253 254 255
282 282 274 275 276 281 283 283 288 292 289 289 287 286 283 285 287 285 283 279 275 275 275 276 276 274 275 275 274 275 275 276 272 268 262 261 260 257 255 253 252 253 254
280 280 277 274 272 274 280 283 285 292 291 290 290 287 285 283 287 287 285 282 279 278 276 274 274 274 272 272 274 274 274 272 272 269 265 265 264 261 258 257 255 255 255
279 275 274 273 273 273 276 281 286 292 294 294 292 289 288 286 289 287 287 285 284 279 275 273 271 273 270 271 273 274 273 270 270 270 267 266 266 264 260 258 257 255 256
279 276 273 272 274 276 277 278 285 291 297 298 296 294 293 291 290 290 288 286 283 280 278 274 270 268 268 270 271 271 272 271 270 273 272 268 267 264 262 264 262 262 259
278 275 270 274 280 280 281 281 284 290 295 299 299 297 297 294 289 287 286 284 284 282 282 279 275 271 268 267 269 268 269 269 271 273 275 273 271 267 264 263 264 264 263
276 276 272 271 276 279 280 282 282 287 291 294 297 298 299 297 292 287 286 285 285 284 283 281 280 277 271 268 266 264 265 267 272 272 276 279 277 273 266 265 266 266 265
276 277 276 276 276 278 279 282 284 288 290 291 296 300 300 298 292 287 284 284 286 287 285 284 284 280 276 272 267 264 264 264 267 270 275 280 281 275 269 268 268 268 269
278 278 277 278 278 280 281 283 285 288 289 288 292 298 300 299 292 287 285 284 285 285 285 285 284 282 279 275 269 266 264 265 265 269 272 277 279 275 272 271 271 271 271
278 280 279 278 278 279 282 282 283 286 288 288 290 293 294 295 291 289 288 287 286 285 282 283 282 281 279 275 271 268 265 263 264 267 270 273 273 272 271 275 276 276 275
278 278 280 278 278 278 278 279 281 283 286 288 290 292 292 290 288 287 287 286 285 286 286 286 284 283 281 279 275 272 267 266 268 267 269 270 272 273 272 275 275 276 275
276 276 280 281 279 279 279 279 279 280 282 283 286 289 288 287 285 285 285 285 285 286 286 285 283 283 284 281 278 273 271 269 268 267 268 271 272 273 275 275 276 277 278
274 274 281 282 280 281 280 280 278 280 280 282 285 285 283 282 282 282 283 283 283 284 285 283 280 280 282 283 280 277 277 273 271 270 268 270 272 272 273 274 276 277 278
273 274 276 278 277 276 277 279 281 281 280 280 282 284 285 283 282 281 282 281 281 281 283 282 279 278 278 280 279 278 278 278 277 275 272 271 270 271 272 273 274 276 277
274 274 275 274 274 273 275 276 278 279 279 280 281 284 285 284 284 281 280 279 279 280 282 281 281 278 277 278 278 278 278 277 277 277 276 274 273 272 273 273 274 275 276
274 274 275 275 274 273 274 275 276 276 277 277 279 282 283 284 284 281 278 278 278 279 281 280 280 278 277 278 278 278 278 278 277 277 278 278 276 276 276 275 275 276 277
276 274 273 273 273 273 274 276 275 274 275 275 277 279 281 282 283 282 280 278 278 279 279 280 278 277 276 276 276 277 277 278 278 277 278 279 279 278 277 278 278 279 279
278 276 274 274 273 272 273 274 275 274 274 274 275 277 278 281 282 282 280 278 278 278 278 279 279 276 276 276 276 277 279 280 279 279 279 281 282 280 278 278 279 279 278
277 276 276 276 275 274 274 274 273 273 273 273 273 273 276 277 279 280 278 277 278 278 278 278 279 279 278 277 276 277 278 279 280 280 279 279 280 281 280 279 279 277 278
276 276 276 276 275 275 275 274 272 271 271 271 272 272 273 274 275 277 277 276 276 277 277 278 278 279 279 277 276 277 278 278 278 280 280 280 280 280 280 280 279 277 277
274 274 274 275 275 275 274 273 273 271 269 269 270 270 271 272 273 274 275 275 274 274 275 276 276 276 276 276 276 276 276 277 278 279 279 279 279 279 279 279 278 277 277
274 273 273 273 274 273 272 272 272 271 270 268 268 269 270 272 272 272 273 274 274 273 274 274 275 275 275 275 274 274 276 276 277 279 279 279 279 278 279 279 277 277 276
271 271 272 272 273 273 272 272 271 270 270 270 269 269 270 271 272 272 273 274 274 274 274 275 275 275 275 275 275 275 276 276 277 278 279 279 278 279 278 277 276 275 275
Height
5853 5853 5853 5853 5853 5853 5853 5853 5853 5853 5853 5853 5853 5852 5852 5852 5852 5852 5852 5852 5851 5851 5851 5851 5851 5850 5851 5850 5850 5850 5850 5851 5851 5851 5851 5851 5852 5852 5852 5853 5853 5854 5854
5851 5851 5851 5851 5851 5851 5851 5851 5851 5851 5851 5851 5851 5851 5850 5850 5850 5850 5850 5849 5849 5849 5849 5849 5848 5848 5848 5848 5848 5848 5848 5848 5848 5848 5849 5849 5849 5849 5849 5850 5851 5851 5852
5849 5849 5849 5849 5849 5849 5849 5849 5849 5849 5849 5849 5849 5849 5848 5848 5848 5847 5847 5847 5847 5847 5846 5846 5846 5846 5846 5846 5846 5846 5846 5845 5845 5846 5846 5846 5846 5846 5846 5847 5847 5848 5849
5847 5847 5847 5847 5847 5847 5847 5848 5848 5848 5847 5847 5847 5846 5846 5846 5845 5845 5844 5844 5844 5844 5844 5844 5843 5843 5843 5843 5843 5843 5843 5843 5842 5842 5843 5843 5843 5843 5843 5844 5844 5845 5846
5845 5845 5845 5845 5845 5845 5846 5846 5846 5846 5845 5845 5845 5844 5844 5843 5843 5842 5841 5841 5841 5841 5841 5841 5841 5841 5841 5840 5840 5840 5840 5840 5839 5839 5840 5840 5840 5840 5840 5841 5841 5842 5842
5842 5843 5843 5843 5843 5844 5844 5844 5843 5843 5843 5843 5842 5842 5841 5840 5840 5839 5838 5838 5838 5837 5838 5837 5838 5838 5838 5837 5837 5837 5837 5837 5837 5837 5837 5836 5836 5837 5837 5837 5838 5838 5839
5840 5840 5841 5841 5841 5841 5842 5841 5841 5841 5841 5840 5840 5840 5839 5838 5837 5836 5835 5834 5834 5834 5834 5834 5834 5834 5834 5834 5834 5834 5834 5834 5834 5834 5833 5833 5833 5833 5834 5834 5834 5834 5835
5838 5838 5838 5839 5839 5839 5839 5839 5839 5839 5838 5838 5837 5837 5836 5836 5834 5833 5832 5831 5830 5830 5830 5830 5830 5830 5831 5831 5831 5831 5831 5831 5831 5831 5830 5830 5830 5830 5830 5830 5830 5831 5832
5836 5836 5836 5836 5836 5837 5837 5837 5836 5836 5836 5835 5834 5834 5833 5832 5831 5830 5829 5828 5827 5827 5827 5827 5826 5826 5827 5827 5827 5828 5828 5828 5828 5827 5827 5827 5826 5826 5826 5827 5827 5827 5828
5833 5833 5834 5834 5834 5834 5834 5834 5834 5833 5833 5832 5831 5830 5830 5828 5827 5826 5826 5825 5825 5824 5824 5824 5823 5823 5823 5823 5824 5824 5824 5824 5824 5824 5823 5823 5822 5821 5822 5823 5823 5824 5824
5831 5831 5831 5832 5832 5832 5831 5831 5831 5830 5830 5829 5828 5827 5826 5825 5824 5823 5823 5823 5822 5822 5821 5821 5821 5820 5820 5820 5820 5820 5821 5821 5820 5820 5820 5819 5817 5817 5817 5819 5819 5820 5820
5829 5829 5829 5829 5829 5829 5829 5828 5828 5827 5827 5826 5825 5824 5823 5822 5821 5821 5820 5820 5820 5819 5819 5818 5818 5817 5817 5817 5817 5817 5817 5817 5817 5817 5817 5816 5815 5814 5814 5815 5816 5816 5817
5826 5826 5826 5826 5826 5826 5826 5825 5825 5824 5824 5823 5822 5821 5820 5819 5819 5818 5818 5817 5817 5816 5816 5815 5814 5814 5814 5813 5813 5813 5813 5813 5813 5814 5814 5813 5812 5812 5812 5813 5813 5813 5813
5824 5824 5824 5823 5823 5823 5823 5822 5822 5821 5821 5820 5819 5818 5817 5816 5816 5815 5815 5814 5814 5813 5813 5812 5812 5811 5811 5810 5810 5809 5809 5810 5810 5810 5810 5810 5810 5810 5810 5810 5810 5810 5810
5821 5821 5821 5820 5820 5820 5819 5819 5819 5818 5818 5817 5816 5815 5814 5813 5813 5812 5812 5811 5811 5811 5810 5809 5809 5808 5807 5807 5806 5806 5806 5806 5806 5806 5807 5807 5807 5807 5806 5806 5806 5806 5806
5818 5818 5817 5817 5817 5816 5816 5816 5815 5815 5814 5813 5813 5812 5811 5810 5810 5809 5809 5808 5808 5807 5807 5806 5805 5805 5804 5803 5803 5803 5802 5802 5802 5802 5803 5803 5803 5803 5803 5803 5803 5803 5803
5814 5814 5814 5813 5813 5813 5812 5812 5812 5811 5811 5810 5809 5809 5808 5807 5806 5806 5805 5805 5804 5804 5803 5802 5802 5801 5801 5800 5799 5799 5799 5799 5798 5798 5798 5798 5798 5798 5798 5798 5798 5798 5798
5810 5810 5809 5809 5809 5808 5808 5808 5808 5807 5807 5806 5805 5805 5804 5803 5802 5802 5801 5801 5800 5800 5799 5799 5798 5797 5797 5796 5796 5795 5795 5795 5794 5794 5794 5794 5794 5793 5793 5793 5793 5793 5793
5805 5805 5804 5804 5804 5804 5803 5803 5803 5802 5802 5802 5801 5800 5800 5799 5798 5797 5797 5796 5796 5795 5795 5794 5793 5793 5792 5792 5792 5791 5790 5790 5789 5789 5789 5788 5788 5788 5788 5788 5787 5787 5787
5799 5799 5799 5799 5798 5798 5798 5797 5797 5797 5797 5796 5796 5795 5795 5794 5793 5793 5792 5792 5791 5790 5790 5789 5789 5788 5788 5787 5787 5786 5786 5785 5784 5784 5783 5783 5782 5782 5782 5782 5782 5781 5781
5793 5793 5793 5792 5792 5792 5792 5791 5791 5791 5791 5791 5790 5790 5789 5789 5788 5787 5787 5786 5785 5785 5784 5784 5783 5783 5782 5782 5781 5781 5780 5780 5779 5778 5778 5777 5777 5776 5776 5776 5775 5775 5774
5787 5786 5786 5786 5785 5785 5785 5784 5784 5784 5784 5784 5784 5783 5783 5782 5782 5781 5781 5780 5780 5779 5779 5778 5778 5777 5776 5776 5775 5775 5774 5774 5773 5773 5772 5771 5770 5770 5769 5769 5768 5768 5767
5780 5779 5779 5778 5778 5777 5777 5777 5776 5776 5776 5776 5776 5776 5776 5775 5775 5775 5774 5774 5773 5773 5773 5772 5772 5771 5770 5769 5769 5768 5768 5767 5767 5766 5766 5765 5764 5763 5762 5762 5761 5761 5760
5771 5771 5770 5770 5769 5769 5768 5768 5768 5768 5768 5768 5768 5768 5768 5768 5767 5767 5767 5766 5766 5766 5765 5765 5764 5764 5763 5762 5762 5762 5761 5761 5760 5759 5759 5758 5757 5756 5755 5755 5754 5753 5753
5762 5762 5761 5761 5760 5760 5759 5759 5759 5759 5759 5759 5759 5759 5759 5759 5759 5759 5759 5759 5758 5758 5757 5757 5757 5756 5755 5755 5754 5754 5754 5753 5753 5752 5751 5751 5750 5749 5748 5748 5747 5746 5746
5753 5752 5752 5751 5751 5750 5750 5749 5749 5749 5749 5750 5750 5750 5750 5750 5750 5750 5750 5750 5750 5750 5749 5749 5748 5748 5747 5747 5746 5746 5745 5745 5744 5744 5743 5742 5742 5741 5741 5740 5739 5739 5738